Wind_Speed
15 14 13 12 10 9 8 7 6 5 5 4 4 5 7 7 6 6 5 5 6 7 7 7 6 5 5 6 8 9 10 10 11 13 15 15 13 14 15 16 19 20 19 18 15 12 10 9 10 12 13 13 14 16 17 20 24 26 26 26 27 28 27 28 28 28 25 22 22 21 18 18 18 17 17 18 19 18 18 18 17 17 18 18 18 18 18 17
17 16 15 14 13 12 10 9 8 7 7 6 6 5 6 7 8 7 7 6 6 6 7 7 6 6 5 6 7 8 9 9 10 12 13 14 12 13 13 12 17 20 18 15 11 8 6 7 8 10 12 14 15 18 20 21 24 26 26 27 27 26 26 26 26 25 23 22 22 21 18 18 18 17 18 19 20 19 19 20 19 18 18 18 18 18 18 16
18 17 16 16 15 14 13 12 11 9 9 8 8 7 7 7 8 9 8 8 7 7 7 7 7 6 6 6 6 7 8 9 9 10 11 12 12 11 12 11 14 19 17 13 9 4 1 4 9 10 13 16 16 19 21 22 24 25 24 25 23 21 21 21 21 20 21 21 21 19 17 18 18 16 17 19 19 19 19 19 20 20 18 18 17 17 16 15
18 18 17 17 16 15 14 13 12 12 10 10 9 9 8 8 8 9 9 9 9 8 8 8 8 7 7 6 6 6 7 8 8 9 9 10 10 9 10 12 14 17 16 13 11 7 2 4 7 9 14 18 18 19 21 21 24 24 24 25 20 18 19 19 19 18 20 21 18 17 17 18 18 17 18 18 18 18 18 19 20 20 18 17 17 16 14 13
17 17 17 17 17 16 16 15 14 13 12 11 10 10 9 9 9 9 10 10 11 10 9 9 9 9 8 7 6 6 6 6 7 8 8 8 8 8 10 13 14 15 14 12 12 10 4 3 4 7 15 21 20 19 20 20 22 24 24 24 21 20 20 21 22 20 21 21 18 17 18 19 18 18 19 19 18 18 19 19 20 20 18 17 15 14 12 11
17 17 17 17 17 16 16 16 15 15 14 13 12 12 11 10 10 9 10 10 11 12 11 11 10 10 9 8 6 6 6 6 6 7 6 5 6 7 9 12 13 13 11 10 10 10 8 5 4 7 13 18 18 16 18 19 21 21 21 20 20 21 21 23 24 23 25 24 21 20 19 20 19 20 21 20 20 20 20 20 21 20 19 17 14 12 11 11
17 17 17 17 16 16 16 16 16 16 16 15 14 13 13 12 11 11 10 10 11 12 13 13 12 11 10 8 7 7 7 6 5 7 7 6 6 6 8 11 12 11 9 9 6 5 6 4 4 5 10 15 15 15 16 19 21 20 18 16 19 22 22 24 27 25 26 26 25 23 21 21 21 21 20 19 19 19 20 21 20 20 19 17 15 14 13 12
17 17 17 17 16 16 16 15 15 15 16 16 16 15 15 14 13 12 12 12 12 12 13 14 14 13 11 9 9 8 8 6 4 7 8 7 7 6 7 9 11 11 10 8 5 4 3 4 7 3 7 11 14 16 15 19 22 19 17 14 15 21 20 22 27 26 25 25 25 23 21 22 21 20 18 16 17 19 20 21 20 18 17 17 17 16 14 14
18 18 17 17 16 16 16 16 15 15 15 15 15 15 15 15 15 14 13 13 13 13 13 14 15 15 13 11 10 10 9 8 4 4 6 7 8 6 6 7 9 9 9 7 5 6 7 8 8 3 7 8 12 16 15 18 21 19 17 13 13 18 17 19 23 25 23 22 23 22 21 21 20 19 17 16 17 21 24 24 22 19 17 18 19 18 15 15
20 19 18 18 17 16 16 16 16 16 15 15 14 14 14 15 15 14 14 14 14 14 14 14 15 15 15 12 12 11 10 11 8 4 3 5 8 7 6 6 7 7 7 6 5 8 5 5 5 6 6 5 8 14 17 18 19 20 21 19 19 19 17 18 23 24 23 19 19 20 20 20 19 17 16 17 19 23 27 27 24 20 19 19 19 18 17 16
21 20 19 19 18 17 17 16 16 16 16 15 15 14 13 13 14 14 14 13 14 14 14 15 15 15 15 12 12 13 13 13 10 8 6 5 7 8 7 6 6 6 5 4 4 8 5 6 6 4 2 3 6 12 17 21 23 24 26 26 26 22 18 20 24 25 23 20 18 18 18 19 20 17 16 19 21 24 26 27 24 21 20 20 18 18 18 17
23 22 21 20 19 19 18 17 17 16 16 16 16 15 14 14 13 13 13 12 13 14 14 14 14 15 13 12 13 13 13 13 10 9 8 7 8 8 8 7 6 7 6 5 4 7 7 6 3 2 4 4 6 14 18 22 25 26 26 26 26 25 21 21 24 25 24 22 20 19 19 20 20 18 18 22 24 25 25 25 22 20 20 20 18 17 18 16
25 24 23 22 20 20 19 19 18 17 17 16 16 16 16 15 14 13 12 12 12 12 13 14 14 13 12 14 13 10 13 14 12 11 11 10 9 9 9 9 7 7 7 6 5 6 7 5 3 4 5 3 6 17 20 21 23 23 24 24 23 23 22 20 24 25 26 26 22 20 22 22 19 17 19 23 24 22 23 25 22 18 20 20 18 16 17 15
27 26 25 24 23 22 21 20 19 19 18 17 17 17 17 17 16 14 13 12 11 12 12 12 12 12 12 13 11 11 15 16 14 14 12 11 11 9 9 9 9 8 7 6 5 6 7 6 6 7 6 4 6 13 15 19 22 21 21 21 19 20 21 19 22 23 25 27 22 22 27 24 19 18 18 21 22 19 20 25 24 20 19 20 18 16 17 14
28 27 26 25 24 24 23 22 21 20 20 19 18 17 17 17 17 16 15 13 12 12 11 11 11 11 12 12 11 13 14 15 16 17 13 11 11 10 10 9 9 9 8 8 7 7 8 7 8 9 9 8 7 8 12 18 20 20 18 18 16 17 21 18 19 20 22 24 21 22 28 24 21 22 19 20 24 23 22 25 25 23 20 19 17 16 16 13
28 28 28 27 25 25 24 24 23 22 21 20 19 18 17 17 16 16 16 15 14 13 12 11 11 12 13 13 13 15 16 17 18 16 13 11 11 11 10 9 9 10 9 9 8 9 9 9 10 11 10 9 7 7 13 16 17 16 15 15 14 15 18 17 17 18 19 20 21 22 26 27 26 26 22 23 28 29 27 26 24 26 23 18 17 16 15 11
26 28 28 28 27 26 25 25 24 23 22 22 21 20 19 18 17 16 16 16 16 15 13 12 11 13 14 13 15 16 16 15 14 13 12 11 11 11 10 10 10 10 9 9 10 11 11 10 11 9 8 10 10 8 9 11 10 11 11 12 13 13 15 16 17 16 17 17 21 22 23 27 29 29 28 29 32 31 27 27 27 28 26 19 15 16 15 10
25 25 27 28 28 27 26 26 25 24 24 23 22 22 21 20 18 17 17 17 17 16 15 13 12 14 14 15 17 15 13 12 11 13 14 13 13 12 11 10 11 10 9 9 11 12 11 11 11 11 14 16 15 10 6 5 5 8 8 8 9 10 12 14 16 16 16 15 18 19 19 25 30 30 31 32 33 29 25 28 31 31 27 20 14 14 16 13
24 24 25 26 27 28 28 27 26 25 24 24 24 23 22 21 20 19 18 18 18 17 15 14 14 15 14 16 16 13 11 11 12 14 14 13 14 12 12 11 11 10 9 9 11 12 11 10 11 12 16 17 16 12 6 3 2 7 7 6 8 10 11 13 14 16 18 15 15 18 18 22 28 31 32 30 30 28 26 27 30 31 28 22 15 12 15 15
23 23 23 24 25 26 28 28 27 26 25 25 25 25 24 23 22 21 20 19 18 16 15 16 17 17 16 16 15 11 10 10 11 12 13 14 14 14 13 12 12 10 9 10 12 14 12 10 10 11 13 14 17 14 4 2 1 7 10 11 12 13 15 15 13 17 20 16 14 17 18 19 24 29 30 27 27 28 27 26 28 30 29 26 20 15 15 15
23 23 23 23 24 24 26 27 28 27 26 25 25 25 25 24 23 22 22 21 20 18 17 17 17 17 18 17 15 13 13 13 14 13 13 14 15 15 14 13 13 11 12 13 14 16 14 11 10 10 11 12 15 11 3 6 5 8 10 12 14 11 15 15 12 17 21 17 13 16 19 18 20 25 26 24 25 26 26 26 26 28 30 30 24 19 16 14
23 23 22 23 23 23 23 25 26 27 27 26 26 26 26 25 24 24 23 22 22 20 19 18 16 17 18 17 16 16 15 15 16 15 15 16 16 16 16 14 14 13 14 14 15 17 15 12 12 12 13 14 15 12 7 8 10 12 13 16 18 12 9 7 7 14 18 17 14 18 21 18 18 21 21 20 22 25 26 25 25 26 28 30 27 22 18 13
24 23 23 23 23 23 23 23 24 25 26 26 26 26 26 26 25 24 24 23 23 21 19 19 19 19 18 17 17 17 16 15 15 16 16 17 17 18 17 16 16 15 15 15 16 17 15 14 16 15 15 17 18 16 12 9 9 13 16 17 17 12 7 5 7 11 15 17 15 18 22 19 19 20 16 17 20 22 22 23 24 24 27 31 29 22 19 15
23 24 24 24 24 23 23 23 23 23 23 24 25 26 26 26 25 25 24 24 24 22 20 21 21 19 18 19 18 16 16 15 15 18 16 15 15 16 18 18 17 15 15 15 15 15 14 16 18 17 15 17 18 17 14 10 7 8 10 11 14 12 9 9 9 10 12 15 14 17 20 20 21 19 15 16 17 17 19 21 23 22 26 28 21 18 20 19
22 23 24 25 25 24 24 24 23 22 21 21 23 25 26 25 25 25 24 24 23 21 22 23 21 19 20 20 18 17 18 14 16 19 16 14 15 15 16 17 15 15 15 15 14 12 13 16 17 16 16 17 16 15 14 11 7 7 7 9 14 15 14 13 12 10 11 13 13 16 20 21 22 21 19 19 19 20 20 20 20 21 23 18 12 16 22 22
21 22 23 24 25 25 25 25 24 22 19 19 21 23 24 25 25 24 23 23 21 20 24 25 22 20 20 19 18 21 21 15 17 19 16 15 16 16 17 16 14 14 15 16 13 10 12 15 14 14 15 16 15 12 11 10 7 8 10 11 12 13 14 15 13 12 11 10 10 12 15 17 19 21 24 24 23 22 19 17 17 18 17 12 13 21 24 24
20 21 22 23 24 24 25 25 24 21 19 19 21 23 23 23 23 22 22 23 20 19 24 25 22 21 20 20 21 23 22 17 18 19 18 18 18 17 17 15 14 15 17 16 12 10 11 12 12 13 15 15 14 10 7 10 10 10 12 13 12 11 12 14 14 12 12 11 7 5 7 13 16 14 16 18 18 16 14 13 14 17 17 16 22 28 27 25
20 21 21 22 22 23 24 23 22 20 18 20 24 25 22 21 21 21 22 22 18 19 23 21 20 20 19 21 22 21 21 20 19 19 20 22 20 17 16 16 15 16 18 17 12 10 11 11 12 14 13 12 12 10 9 11 11 11 12 13 14 11 10 12 11 10 10 10 7 1 5 11 11 7 7 10 11 9 9 10 14 19 21 24 27 27 26 26
19 20 21 21 22 22 22 21 20 18 19 23 25 24 22 22 21 20 22 22 17 19 21 18 17 19 20 21 21 18 19 20 18 19 21 23 23 19 16 17 17 16 18 17 12 9 10 11 14 13 9 8 9 8 8 8 8 10 12 12 12 11 10 10 9 10 7 6 5 1 5 11 11 7 7 10 10 8 10 15 19 21 24 27 26 25 26 28
17 18 19 20 21 22 21 20 19 19 22 25 23 22 22 22 21 22 24 20 15 17 18 15 16 18 18 19 19 18 19 19 17 18 21 21 21 20 17 18 18 18 19 18 13 10 11 13 13 9 6 6 8 7 7 7 8 11 12 13 12 11 13 12 11 14 6 4 2 1 3 11 14 13 10 9 10 11 14 19 20 23 26 25 24 26 28 29
17 17 17 18 19 19 19 20 21 22 24 23 21 21 22 22 22 24 22 15 14 17 17 14 14 16 17 17 18 19 19 19 18 18 20 20 18 17 16 17 19 19 20 19 16 14 15 16 12 7 5 7 7 6 6 7 10 13 14 15 14 13 15 13 12 14 6 6 3 4 5 11 15 15 12 9 11 12 15 18 20 24 26 24 25 28 28 28
18 18 18 18 18 18 18 19 21 22 22 21 21 21 21 22 23 21 15 12 14 17 16 17 16 15 18 17 16 19 18 16 17 18 20 22 19 17 17 17 18 19 19 19 17 17 17 15 12 11 10 9 8 6 4 5 9 13 14 16 16 14 15 14 11 9 5 10 10 8 10 14 15 14 13 11 12 13 14 17 20 22 25 27 28 27 26 30
20 20 20 19 19 18 19 19 19 18 18 20 21 21 23 23 19 15 13 13 16 16 15 17 18 18 19 15 13 18 18 15 15 16 19 21 20 18 17 17 18 18 18 18 18 19 17 13 13 13 11 11 13 10 7 6 8 9 9 12 14 14 15 14 10 6 5 4 5 11 16 17 17 15 12 12 14 15 16 18 19 22 26 28 27 25 29 32
21 21 22 22 21 21 21 20 18 17 18 19 20 21 22 20 15 13 15 15 15 15 14 13 15 17 16 14 14 15 15 14 14 14 17 20 18 15 15 17 18 18 18 18 18 18 16 13 11 10 12 15 13 9 9 10 8 7 9 14 17 16 15 13 7 6 7 3 4 12 17 17 16 15 15 16 17 18 18 20 22 25 27 27 26 27 31 31
22 22 22 23 23 23 23 21 20 20 19 19 19 19 16 14 13 14 15 15 16 18 17 14 14 14 12 13 12 9 6 7 11 13 16 18 13 9 11 15 16 18 19 18 17 18 16 12 12 13 15 14 9 6 9 9 8 10 13 17 17 15 14 10 5 7 8 7 10 13 14 15 14 13 16 19 19 19 20 22 25 27 27 27 28 30 30 29
23 23 23 23 23 23 23 23 22 22 21 20 19 16 13 12 14 15 18 21 24 24 21 17 15 12 10 7 5 5 3 2 7 11 11 11 6 3 6 9 10 13 17 17 16 17 13 11 14 14 11 8 6 7 7 6 8 11 13 15 16 13 12 10 8 9 8 10 14 13 12 16 16 14 16 19 20 20 21 22 24 24 25 27 29 29 30 30
24 24 23 23 23 23 23 23 23 22 22 20 17 15 15 15 16 19 23 26 28 27 22 20 18 14 11 7 6 8 8 6 7 9 6 4 3 2 2 2 4 6 11 13 12 12 11 12 14 11 8 8 8 6 3 5 8 10 11 13 14 12 11 11 11 10 8 11 15 15 15 16 15 15 17 19 20 19 19 21 22 23 25 26 28 30 32 33
25 25 24 24 24 24 24 23 23 22 21 19 16 16 17 18 19 21 24 25 27 27 24 26 24 20 18 14 11 14 14 9 6 3 0 4 5 4 3 2 3 3 5 8 7 8 10 12 15 13 10 9 10 5 1 7 10 11 13 13 11 10 9 8 9 9 7 8 13 15 16 15 14 17 20 21 21 20 21 23 24 24 25 26 29 32 35 37
27 26 26 26 26 25 24 23 23 22 20 18 17 17 18 20 22 23 23 25 28 28 28 29 28 24 23 19 16 19 19 14 8 6 4 3 4 4 5 1 2 2 4 6 4 5 10 10 15 17 11 10 10 5 3 8 11 14 13 7 6 6 6 5 7 7 8 8 12 14 14 15 16 19 21 21 21 22 24 25 25 25 27 29 32 35 37 39
28 28 27 27 27 26 25 24 23 22 20 19 19 19 20 22 24 24 25 26 27 28 28 29 28 26 22 20 20 22 19 16 12 10 5 1 2 3 7 2 2 6 7 6 5 6 10 10 12 18 16 12 11 8 3 3 8 12 9 1 3 3 5 6 7 7 9 12 13 14 14 16 18 19 19 19 21 23 25 26 27 28 30 33 36 37 38 39
30 29 29 29 28 27 26 25 24 22 21 21 21 22 23 23 25 26 27 27 27 27 27 27 27 25 21 20 23 23 19 16 12 11 8 5 5 2 4 6 7 11 12 8 6 8 11 13 10 17 19 14 13 13 9 6 7 8 7 3 2 5 6 6 6 8 10 14 14 14 14 16 20 21 21 22 23 25 26 27 29 31 33 36 38 38 39 39
32 31 30 29 29 28 28 26 25 24 22 22 24 24 25 25 26 27 27 27 28 27 27 26 27 24 20 20 24 23 20 17 13 12 11 9 9 8 8 9 9 10 13 10 11 12 11 14 13 16 23 19 15 15 9 5 5 4 5 8 9 9 7 6 5 7 8 13 14 15 15 18 21 22 21 22 23 23 24 27 30 32 34 36 38 40 40 39
33 32 32 32 31 30 30 28 27 25 24 25 27 26 27 27 27 28 28 28 29 28 27 26 25 24 20 22 27 25 21 19 18 17 15 13 11 8 5 7 9 8 10 11 16 17 12 11 12 13 23 24 18 15 10 7 4 1 3 9 11 7 3 7 7 6 8 12 14 15 17 20 22 22 21 21 22 23 25 27 30 33 34 36 38 41 41 38
33 33 34 34 33 32 32 31 30 29 28 29 29 28 27 27 26 27 27 28 29 28 27 26 25 24 21 23 29 27 23 21 22 23 21 17 13 12 14 14 13 13 12 13 17 18 14 14 14 10 17 24 21 13 7 6 5 4 3 5 6 4 4 11 11 8 10 14 15 16 18 21 22 23 24 24 24 25 27 29 32 34 35 37 38 39 38 37
35 34 36 37 36 35 34 33 32 32 32 30 28 27 27 27 26 27 28 28 28 27 26 25 25 24 23 24 28 29 28 25 25 27 26 21 18 19 22 21 17 16 16 17 20 22 21 22 21 13 15 23 23 17 10 8 7 6 2 2 4 4 8 15 16 13 14 16 18 20 21 22 24 25 26 27 28 29 30 32 34 35 36 37 36 35 36 36
36 36 36 37 36 35 35 34 33 33 33 32 29 28 28 29 30 30 29 29 28 27 25 24 24 25 24 25 28 31 32 29 28 31 29 23 20 23 26 26 23 20 19 20 21 24 25 25 24 19 16 22 27 24 16 12 10 5 4 3 3 6 11 14 14 15 17 18 19 22 22 23 25 27 28 28 30 31 33 35 36 36 36 34 33 32 33 34
34 36 34 34 34 34 34 34 34 33 34 34 32 31 31 31 32 32 31 31 30 28 25 24 25 26 26 27 29 33 34 31 32 34 31 26 22 24 28 28 25 23 22 21 20 20 21 22 23 20 15 19 27 26 18 15 11 5 7 8 3 9 12 11 11 14 17 17 18 20 22 23 26 28 29 30 32 34 36 36 35 33 31 29 28 27 28 30
31 31 31 31 33 32 32 33 33 33 33 33 32 32 32 32 33 33 33 33 32 29 27 26 25 26 29 30 32 34 35 34 35 35 32 29 26 27 29 28 24 20 17 16 16 15 14 17 21 21 13 12 22 24 17 17 15 7 9 12 9 14 13 10 13 18 19 20 21 21 22 24 28 31 34 35 35 34 34 33 31 28 27 25 23 23 24 27
28 27 28 29 31 31 30 31 31 32 33 33 32 33 33 34 34 35 35 35 34 32 30 28 27 29 32 35 37 38 39 38 37 35 33 32 32 31 31 30 26 21 17 14 12 10 9 12 19 22 15 9 16 22 19 16 15 9 8 12 15 17 16 14 17 20 22 24 25 25 26 27 28 30 33 34 33 32 32 30 27 25 23 22 21 21 22 24
27 26 26 28 30 30 30 31 30 30 31 31 31 33 33 34 35 37 37 37 36 35 33 32 31 32 35 38 40 41 43 43 41 38 36 36 36 34 33 33 30 26 24 21 18 15 11 12 18 22 19 11 13 22 23 14 10 10 7 13 14 14 19 21 20 21 22 24 26 28 30 31 30 31 32 32 31 30 29 27 24 23 21 20 20 20 21 23
28 28 27 29 30 31 31 31 30 30 31 32 32 34 34 35 37 39 39 39 37 36 35 33 34 34 35 39 41 42 44 46 44 42 40 39 38 35 33 34 33 31 30 27 26 21 15 14 19 23 22 15 12 20 23 15 12 14 11 16 17 15 19 24 25 25 25 26 28 29 30 31 32 34 35 34 32 29 26 25 23 22 20 20 21 21 21 21
29 29 29 30 32 33 33 33 32 32 34 35 35 36 37 37 37 39 40 39 38 37 35 34 34 34 35 39 41 41 42 43 44 45 46 45 42 38 35 35 35 34 32 30 28 25 17 14 19 24 23 17 13 19 23 17 15 16 15 18 20 19 21 25 27 28 28 28 29 29 30 33 34 34 32 30 28 25 23 23 22 21 21 21 22 22 21 20
Wind_Direction
226 228 230 233 234 234 230 224 215 210 210 208 201 196 194 199 206 212 209 195 179 171 168 163 158 151 138 124 114 107 103 99 96 96 94 90 88 89 93 103 102 89 75 66 58 53 54 65 75 80 87 84 74 70 64 64 66 60 52 50 49 47 45 47 46 42 42 39 37 34 28 34 39 33 32 32 30 30 27 25 24 26 28 30 30 32 35 36
225 227 229 231 233 235 236 234 227 218 213 212 212 205 199 200 203 208 213 212 202 190 183 179 176 172 164 146 129 120 114 105 101 101 100 96 91 90 93 101 99 86 71 61 55 54 63 83 95 90 85 80 77 74 65 60 64 60 54 50 46 41 39 43 45 41 39 37 35 34 31 37 37 26 26 26 24 24 24 21 21 24 28 30 31 31 34 35
224 226 228 230 232 233 235 236 235 230 220 214 213 212 207 202 203 205 208 214 215 209 200 192 191 190 184 170 146 137 128 118 114 111 109 105 97 94 92 90 94 92 86 81 73 64 105 115 98 80 68 64 67 72 65 58 59 59 57 53 48 43 38 40 47 48 48 43 38 39 38 42 40 25 25 25 21 23 25 22 22 24 27 30 32 34 34 33
223 224 226 228 230 231 232 233 234 234 230 222 215 213 211 205 204 205 206 210 215 219 216 208 203 202 200 190 162 150 140 129 129 127 121 115 108 103 98 93 95 97 99 108 108 103 169 176 123 79 60 54 54 62 61 57 58 55 52 49 44 42 38 37 45 49 53 52 49 46 42 46 44 29 25 25 22 24 26 24 23 24 27 29 31 34 32 27
223 223 224 225 227 229 230 231 231 231 232 229 222 216 213 210 206 204 206 208 212 218 223 222 215 212 211 204 181 166 159 147 140 138 129 123 122 116 107 101 100 103 107 117 120 112 110 190 164 81 61 54 49 53 56 55 55 50 43 39 36 37 36 32 35 39 45 49 50 46 41 46 45 32 25 23 21 22 24 25 24 24 26 29 30 33 29 21
222 223 223 223 224 225 227 228 229 230 231 231 228 223 218 215 211 207 206 207 211 215 221 227 226 223 218 211 200 184 177 167 147 143 139 142 145 131 119 111 110 114 122 128 120 107 90 63 46 65 71 65 57 58 60 56 56 56 46 36 31 31 32 29 27 28 34 36 39 41 38 41 40 31 26 23 22 22 22 22 23 22 22 26 30 29 22 16
219 221 223 223 223 223 224 225 227 228 229 231 231 230 225 221 218 215 212 208 210 213 218 224 229 230 225 216 211 200 190 184 158 158 164 168 170 152 132 125 125 129 143 150 127 105 97 70 25 47 81 83 77 73 70 63 58 59 55 42 27 23 25 27 23 21 25 25 28 35 34 33 34 32 30 26 27 28 24 21 20 19 17 19 24 21 12 10
216 218 220 222 223 223 223 223 223 225 226 228 230 231 231 228 223 219 218 217 212 212 218 222 226 231 229 219 214 211 203 203 182 174 183 181 178 170 149 139 137 140 152 158 151 132 63 342 273 267 81 87 86 80 75 71 63 56 57 48 29 23 18 20 21 19 20 20 20 26 29 28 29 30 32 29 27 28 23 19 18 16 13 13 20 19 9 6
217 217 217 219 221 223 224 224 223 223 223 225 227 229 231 231 229 223 219 222 220 215 216 222 226 229 230 221 215 219 217 217 203 175 189 186 182 182 173 155 143 148 150 146 146 103 33 327 262 196 75 67 76 76 72 72 68 58 52 48 43 37 21 9 15 16 13 15 17 20 26 26 25 26 26 26 24 25 21 16 13 13 13 15 21 21 14 10
220 219 218 217 218 220 222 224 225 225 224 224 224 226 227 229 231 229 222 220 222 222 217 220 225 228 230 223 216 218 222 226 223 218 220 190 186 186 190 178 153 154 143 136 126 89 56 265 192 120 78 48 64 76 71 62 56 51 43 34 34 41 39 18 8 7 4 6 10 14 23 24 25 26 20 21 24 24 22 16 11 8 12 21 25 22 18 16
223 222 221 220 219 219 220 221 224 226 226 226 225 225 225 226 228 229 227 220 220 222 220 219 222 226 229 224 219 215 218 226 224 226 233 203 188 184 190 193 167 160 148 151 136 106 143 200 152 127 122 80 76 83 75 59 49 45 40 30 24 26 37 28 8 3 3 6 7 8 19 20 21 27 23 23 24 18 15 13 11 6 9 20 23 21 21 20
224 224 224 223 222 221 220 220 221 223 225 227 227 227 226 226 225 225 225 221 218 218 219 219 219 223 224 221 220 213 215 225 224 228 234 216 192 182 186 192 179 169 166 175 158 132 161 187 169 153 139 129 100 86 72 60 54 46 39 31 24 19 19 24 16 9 10 9 5 8 20 19 15 22 26 25 21 14 9 10 12 6 7 16 18 16 18 20
227 226 226 225 225 225 224 223 222 221 222 225 227 228 228 227 226 224 223 219 217 215 215 216 216 219 218 219 219 205 209 218 218 221 228 219 200 186 182 186 184 177 175 181 172 154 168 182 159 124 138 185 116 91 71 60 56 46 40 32 25 16 9 21 23 14 10 5 2 9 16 15 13 16 22 22 18 17 17 16 15 7 6 15 19 14 13 18
229 229 228 227 227 227 228 227 225 224 222 223 224 227 229 229 228 227 225 220 216 213 212 210 210 210 211 218 213 199 209 216 214 219 225 220 209 196 187 185 183 182 183 189 188 170 175 183 151 135 149 161 127 106 79 62 53 40 36 31 25 10 358 11 21 12 5 4 11 17 9 10 20 16 17 23 21 23 26 20 17 11 4 9 17 18 14 19
229 230 230 229 229 229 230 229 229 227 225 224 223 224 227 229 230 229 229 226 220 215 210 206 201 199 206 211 203 202 211 215 215 221 226 222 215 209 201 194 186 187 192 196 202 192 190 188 165 162 163 151 149 120 79 62 48 33 25 24 21 3 348 353 8 9 5 4 15 16 3 2 13 11 15 30 26 19 15 9 12 15 9 3 7 17 21 23
229 230 230 230 229 229 230 230 230 230 228 227 225 224 225 227 229 230 231 230 227 220 211 207 197 195 203 203 201 203 205 212 217 219 222 220 216 215 210 205 201 198 198 199 206 207 201 191 183 187 182 168 158 111 76 58 41 27 18 19 17 357 345 341 346 2 10 7 9 7 357 354 356 358 8 21 17 12 6 359 2 9 10 3 353 4 23 30
230 229 230 230 230 230 230 230 230 230 230 229 228 227 226 226 226 228 230 230 230 225 217 212 202 200 203 199 206 208 204 212 221 218 218 217 215 215 211 209 212 210 205 203 210 214 208 197 194 190 171 148 135 114 78 54 30 19 19 21 14 351 342 337 334 352 6 2 4 2 351 348 348 349 354 2 6 10 9 1 359 359 4 7 350 350 10 26
229 229 229 230 230 230 231 230 230 230 230 231 230 229 227 226 226 226 228 229 230 226 222 219 212 212 208 205 212 213 208 210 213 213 211 212 215 215 212 212 213 215 214 215 221 223 215 208 202 179 159 148 142 143 113 73 7 357 7 15 360 333 333 336 330 342 353 349 354 357 348 342 343 344 346 354 3 8 7 3 2 358 358 3 354 341 350 3
228 229 229 229 229 229 230 231 231 230 230 231 231 231 229 227 227 227 227 227 228 227 226 224 224 223 219 219 222 218 212 209 209 213 209 211 220 218 214 215 214 217 221 227 236 235 225 217 212 198 184 171 171 185 180 159 319 324 311 313 313 306 317 326 323 331 343 347 347 354 356 340 335 340 342 349 2 4 359 357 359 359 358 359 354 339 336 342
228 228 229 229 229 228 229 230 231 230 231 231 232 232 231 229 228 229 228 228 228 227 225 224 225 226 223 226 231 231 229 223 218 218 215 214 222 224 219 216 216 219 225 231 241 244 237 226 221 223 221 207 200 207 208 146 249 284 275 281 289 300 312 308 311 324 331 339 344 350 359 342 327 332 337 344 356 357 350 349 353 355 357 355 346 337 330 327
228 228 229 229 229 228 228 229 230 230 230 231 232 233 232 231 230 230 230 230 229 227 226 226 227 230 229 226 228 232 239 239 228 222 223 220 222 229 227 225 225 225 229 234 243 250 250 242 235 234 238 234 219 210 150 126 178 238 249 258 261 283 309 302 302 318 320 324 332 337 343 344 330 327 333 337 347 349 340 340 345 348 351 352 346 338 332 322
228 228 229 230 230 229 228 229 229 229 230 231 232 233 233 232 232 232 231 232 231 228 229 230 229 233 234 230 227 227 232 239 236 231 232 230 231 234 234 236 236 236 239 238 244 252 255 253 247 237 225 223 219 211 189 165 181 207 222 235 236 250 295 296 289 304 310 312 316 317 321 334 332 326 329 331 340 341 331 331 336 340 344 346 346 343 339 332
228 229 230 231 231 231 229 229 229 229 229 231 232 233 234 233 233 233 233 234 234 230 230 232 231 232 237 236 230 228 230 234 238 237 237 238 241 242 241 244 245 248 249 244 243 248 253 252 249 244 235 233 233 230 227 209 195 201 209 226 236 249 267 233 238 271 290 301 308 307 307 314 313 314 323 325 334 338 328 325 329 336 341 338 339 341 340 339
229 229 230 232 232 232 231 231 230 229 228 230 233 233 234 234 234 234 234 235 237 235 233 233 233 234 239 239 235 233 233 232 236 237 237 242 247 247 246 246 247 251 253 250 245 242 243 246 248 248 246 250 252 248 245 241 244 233 219 238 253 257 256 253 261 265 277 292 300 299 295 293 289 290 300 306 317 328 325 323 326 337 341 336 341 352 350 340
230 229 231 232 233 233 233 233 232 230 228 229 233 235 234 234 234 234 234 235 236 239 239 236 234 235 239 242 242 241 236 234 240 240 237 240 244 245 246 245 246 248 250 251 246 236 233 240 249 252 250 252 252 252 258 264 280 275 252 257 260 259 261 269 281 273 259 263 272 281 286 291 290 282 277 277 289 305 313 319 328 340 343 339 350 1 358 350
231 230 231 233 234 235 234 235 233 231 229 230 234 236 234 234 233 233 234 234 231 234 240 239 235 235 238 243 246 243 237 234 242 246 241 236 236 239 242 244 247 250 249 249 246 234 229 234 241 247 248 251 252 258 267 270 278 273 263 263 265 270 269 267 278 285 280 282 284 285 294 312 317 298 278 271 280 294 304 316 329 339 341 336 333 337 343 347
231 230 231 232 235 235 236 236 235 233 230 230 233 234 233 233 234 232 233 234 227 228 238 240 240 239 236 238 241 243 242 237 240 248 247 239 234 237 243 244 246 252 253 253 253 244 238 242 239 235 237 242 249 258 258 254 261 267 271 274 279 288 284 280 292 302 310 327 333 298 309 338 344 322 289 278 284 295 303 315 327 330 329 327 326 327 329 335
231 231 231 232 234 235 237 237 237 235 232 231 233 234 233 233 233 232 233 234 228 227 234 238 242 241 237 237 239 242 247 244 239 244 249 246 241 239 245 247 245 251 256 256 258 256 255 258 254 247 247 251 258 261 254 256 267 277 282 285 292 306 305 297 303 307 320 352 13 333 310 331 343 348 317 290 288 294 299 316 323 322 326 330 329 326 326 330
230 231 232 232 233 235 236 237 237 235 232 232 233 235 234 233 232 232 233 232 227 228 232 234 238 238 237 239 240 239 243 246 243 243 246 250 250 245 244 248 247 249 255 256 252 254 263 266 264 266 274 277 278 278 274 279 286 287 291 295 303 311 302 296 299 303 327 42 57 33 310 315 303 295 305 295 293 295 300 317 322 322 328 329 327 326 327 330
227 229 231 232 233 235 236 236 234 231 230 231 233 234 235 234 232 232 233 229 224 229 232 231 235 239 239 242 243 239 237 239 241 243 246 248 251 252 249 249 250 249 254 256 250 245 249 255 263 280 299 284 279 281 283 296 294 288 290 293 296 292 290 298 301 301 308 113 81 348 316 309 289 278 292 297 301 305 305 313 317 322 328 326 326 332 331 329
225 226 229 230 232 234 234 233 231 230 231 232 233 233 234 234 232 232 233 224 221 229 230 226 229 237 241 240 242 241 239 242 243 244 248 248 248 251 251 249 249 248 252 256 256 250 245 248 258 266 262 260 274 285 295 315 306 296 295 291 289 285 289 299 299 300 284 190 251 325 308 304 293 288 302 297 288 295 300 307 312 319 324 321 325 335 336 333
228 227 228 228 230 231 231 230 230 232 234 234 234 234 234 235 233 235 234 220 221 227 225 223 222 228 236 239 246 246 240 244 250 248 250 252 251 247 243 245 246 247 250 253 254 251 249 252 254 251 247 245 252 262 291 319 304 298 299 294 289 285 285 286 279 294 277 216 243 286 289 297 298 299 313 308 290 290 300 311 314 315 316 315 322 333 338 337
232 231 230 229 229 229 230 230 231 233 234 234 234 234 234 236 235 234 229 218 221 226 225 226 223 224 230 234 246 251 244 241 248 250 251 253 255 250 245 249 252 250 250 249 249 250 251 253 254 258 257 245 246 250 247 257 274 291 297 292 292 290 289 287 273 295 320 228 256 290 284 284 290 295 304 303 298 297 305 316 315 311 310 313 321 330 334 335
234 233 233 231 230 230 231 231 231 232 232 233 233 233 235 237 233 226 223 218 219 222 220 220 223 224 221 212 218 239 247 236 228 232 243 249 254 255 253 256 258 255 253 250 249 251 248 243 242 242 237 237 249 264 262 264 277 290 288 289 296 295 289 287 289 323 338 32 356 308 286 280 285 290 292 294 299 303 307 312 312 311 312 317 324 326 329 333
233 233 233 233 232 231 232 231 230 232 232 233 234 234 235 236 228 219 216 210 208 212 208 204 214 218 212 203 198 216 246 235 221 225 240 249 255 262 257 255 256 252 250 249 246 247 245 231 220 218 225 236 250 279 286 300 315 310 303 299 298 290 278 276 297 322 323 333 323 299 283 289 298 298 299 302 308 311 310 310 312 314 316 319 322 322 327 331
232 232 232 233 232 232 232 231 230 231 232 233 235 235 231 226 219 210 206 203 203 206 200 197 207 209 217 216 157 163 195 185 231 245 254 257 265 286 259 257 258 248 243 242 240 244 238 207 209 220 223 231 244 263 285 339 342 318 309 296 283 273 269 273 283 292 303 310 303 292 293 305 308 304 307 312 314 313 311 311 314 315 313 315 317 319 325 328
232 232 232 232 232 233 232 231 230 230 230 231 232 230 225 220 214 211 211 208 208 207 193 187 195 186 193 205 146 172 194 180 231 259 286 305 349 7 279 300 305 265 246 242 237 241 228 190 195 204 189 209 236 243 275 355 353 332 312 286 268 253 248 254 262 267 282 289 285 291 302 305 307 309 314 318 316 313 313 313 312 308 308 312 316 319 323 323
233 233 232 232 233 233 232 232 231 229 229 227 225 225 222 220 218 217 217 213 211 211 197 191 196 183 182 195 181 182 190 188 218 236 338 324 340 347 321 323 326 317 276 264 250 241 234 196 180 174 176 228 240 200 60 347 354 350 320 283 249 229 232 247 256 247 241 262 273 286 298 302 309 317 320 320 315 310 308 306 303 303 307 313 318 320 321 320
233 233 233 233 233 233 233 233 232 231 228 223 220 221 219 218 218 217 218 215 213 213 206 204 205 195 193 198 179 171 183 190 181 142 123 294 307 4 20 344 260 310 297 288 288 251 249 221 182 174 189 237 235 175 51 342 339 341 329 293 229 229 238 245 259 244 214 230 261 275 294 306 310 310 311 312 310 305 303 301 300 304 311 316 319 319 319 319
233 232 232 232 233 233 233 234 233 231 228 221 217 218 218 219 219 218 219 219 217 215 216 219 215 204 203 203 179 169 186 196 179 159 151 179 196 54 42 65 279 306 280 268 278 259 263 256 200 184 199 224 218 194 178 283 301 315 317 307 160 232 252 245 269 277 240 239 263 278 296 307 303 301 300 301 302 302 303 303 304 309 315 318 317 315 315 316
232 232 233 233 234 234 234 235 233 230 226 220 217 217 218 220 220 221 221 221 220 218 221 226 219 209 208 202 183 176 190 200 183 167 162 155 183 242 313 276 276 290 277 262 260 262 272 274 237 194 196 202 202 205 203 204 241 278 293 300 262 247 260 266 299 314 265 242 253 270 282 291 292 294 295 296 299 301 303 305 307 310 312 313 311 311 313 314
232 232 233 233 234 234 235 234 232 229 224 221 220 218 218 219 219 222 222 221 223 220 220 223 219 214 210 196 187 183 188 195 184 166 163 173 206 241 274 266 255 269 274 253 231 243 262 274 262 215 201 198 199 208 208 197 227 274 324 329 301 268 264 282 302 322 280 244 245 260 276 288 292 293 294 296 297 300 304 306 307 307 306 307 309 311 311 309
233 233 233 232 231 231 232 232 230 226 220 219 220 217 217 218 218 221 221 220 224 223 220 221 217 215 210 196 192 186 179 186 187 180 176 179 200 218 220 220 223 247 272 249 229 235 250 270 273 230 206 203 202 207 204 181 174 263 325 327 311 280 303 334 320 307 280 261 259 269 279 284 286 289 293 297 298 300 305 306 305 304 304 307 309 309 308 306
233 233 233 233 231 229 229 229 226 224 220 220 221 219 218 219 219 221 222 223 227 226 222 221 216 214 212 203 198 186 174 182 189 188 188 184 188 185 168 178 210 230 243 244 236 234 244 264 273 248 209 202 197 195 200 188 164 176 228 313 314 288 329 329 317 299 279 274 274 274 276 278 283 290 294 295 298 301 304 304 303 304 307 309 308 308 308 308
232 231 232 234 232 229 229 228 226 225 224 224 223 222 223 222 220 222 222 224 229 229 226 222 215 215 215 209 202 189 179 183 188 187 190 192 193 188 178 179 199 219 232 243 241 236 241 255 264 254 211 198 193 187 192 199 184 180 214 299 279 277 301 298 288 279 273 277 281 278 276 280 285 290 292 291 294 298 300 299 300 303 306 307 307 308 309 310
231 230 231 234 234 232 231 231 229 227 227 226 223 222 223 222 221 222 221 222 226 227 226 223 217 217 216 211 206 196 187 187 189 186 188 194 194 192 194 198 204 213 228 238 242 244 244 245 252 250 220 198 192 188 191 193 185 206 263 248 238 282 294 284 264 254 260 271 277 275 274 277 281 284 287 288 289 290 290 292 296 301 305 306 307 309 310 310
232 231 232 235 236 236 234 234 233 231 230 229 226 224 222 221 222 224 223 222 223 222 220 219 217 217 216 213 210 203 195 192 189 185 186 192 195 197 206 214 216 218 226 234 242 254 253 242 242 243 228 203 196 193 194 193 189 224 235 199 215 297 291 277 245 240 255 263 265 269 271 271 273 275 276 278 280 280 284 291 298 303 309 312 312 311 311 311
236 232 231 234 237 237 237 237 236 235 234 233 232 229 226 222 221 223 225 224 224 222 218 213 212 212 214 215 212 207 202 196 190 188 190 193 196 204 214 221 223 225 227 230 235 248 250 238 234 234 231 211 203 199 194 198 205 225 220 214 260 288 278 262 246 248 257 259 261 273 279 276 273 271 271 273 277 282 291 300 305 308 314 317 317 317 315 314
240 235 231 233 237 237 236 235 235 235 235 234 233 232 230 225 221 222 225 226 226 223 218 212 206 204 209 214 212 208 206 203 197 196 199 200 202 209 217 220 224 232 231 225 232 246 245 227 223 228 234 224 206 199 192 200 214 217 224 249 272 278 273 267 257 256 260 261 266 276 280 281 280 276 273 274 280 290 299 306 311 312 313 314 314 317 318 315
243 238 232 231 234 236 235 233 231 231 231 230 230 230 230 227 222 221 222 225 227 226 221 214 208 203 204 211 213 209 207 207 205 202 204 209 211 215 221 223 226 233 235 237 250 260 253 229 219 224 232 231 207 198 193 198 211 200 230 276 275 267 270 268 261 259 261 265 272 277 278 282 286 286 282 283 289 296 299 302 308 309 306 306 308 312 316 315
244 239 233 229 229 231 232 232 230 228 226 225 225 226 226 225 223 222 222 222 223 227 225 220 215 209 206 210 214 212 210 210 209 206 207 214 217 218 224 228 230 233 237 244 254 256 250 238 226 224 228 227 206 197 197 202 206 199 230 278 275 264 266 264 261 263 265 269 275 281 284 286 290 293 290 288 291 295 297 300 304 305 305 308 309 311 313 314
244 242 237 232 229 228 229 229 228 227 227 225 223 223 224 224 224 224 223 222 221 223 224 223 221 217 212 212 215 216 215 215 214 211 211 215 219 223 226 229 232 235 237 243 253 258 260 253 238 231 231 228 204 193 197 201 206 211 236 269 273 272 270 267 265 265 267 272 277 283 287 288 292 297 296 293 294 297 301 306 308 309 312 314 314 312 312 312
Height
5934 5935 5936 5937 5938 5938 5939 5940 5941 5942 5942 5943 5943 5944 5944 5944 5944 5944 5945 5945 5945 5946 5946 5946 5946 5946 5947 5947 5948 5948 5949 5950 5950 5950 5950 5950 5951 5951 5951 5950 5948 5948 5948 5947 5947 5948 5948 5949 5948 5947 5946 5947 5947 5948 5948 5947 5944 5943 5942 5941 5940 5940 5941 5942 5942 5942 5943 5944 5943 5942 5941 5939 5938 5938 5937 5937 5936 5935 5935 5935 5935 5935 5934 5934 5934 5933 5933 5932
5934 5934 5935 5936 5937 5938 5939 5940 5941 5942 5942 5943 5943 5944 5944 5945 5945 5945 5945 5945 5945 5946 5946 5946 5947 5947 5947 5948 5948 5949 5950 5950 5950 5950 5951 5951 5951 5952 5952 5951 5949 5948 5949 5949 5949 5949 5950 5950 5949 5948 5947 5946 5947 5948 5948 5947 5945 5944 5943 5941 5940 5941 5942 5943 5944 5944 5944 5944 5944 5943 5942 5940 5938 5938 5938 5937 5936 5936 5936 5936 5936 5935 5935 5935 5935 5934 5933 5932
5933 5934 5935 5935 5936 5937 5938 5939 5940 5941 5942 5943 5943 5944 5944 5945 5945 5945 5945 5945 5945 5946 5946 5946 5947 5947 5947 5948 5949 5949 5950 5951 5951 5951 5951 5951 5952 5952 5952 5951 5950 5949 5950 5950 5951 5951 5951 5950 5950 5949 5947 5946 5946 5946 5947 5947 5946 5946 5945 5942 5943 5945 5945 5946 5947 5948 5948 5946 5945 5944 5943 5941 5940 5940 5939 5938 5938 5937 5936 5936 5936 5936 5935 5935 5935 5934 5933 5933
5932 5933 5934 5935 5935 5936 5937 5938 5939 5940 5941 5942 5943 5943 5944 5944 5945 5945 5946 5946 5946 5946 5946 5946 5947 5947 5947 5948 5949 5950 5950 5951 5952 5952 5952 5952 5952 5953 5953 5952 5951 5950 5951 5951 5952 5952 5952 5952 5952 5950 5948 5946 5946 5945 5946 5947 5947 5947 5946 5945 5947 5948 5948 5949 5950 5951 5951 5948 5947 5946 5945 5942 5941 5942 5941 5940 5939 5938 5937 5936 5936 5936 5936 5935 5935 5934 5933 5933
5931 5932 5933 5934 5935 5935 5936 5937 5938 5939 5940 5941 5942 5943 5943 5944 5944 5945 5946 5946 5946 5946 5946 5946 5947 5947 5947 5948 5949 5950 5950 5951 5952 5952 5952 5952 5953 5953 5953 5952 5952 5952 5952 5952 5953 5953 5953 5953 5952 5950 5948 5946 5946 5946 5947 5949 5948 5947 5946 5947 5948 5948 5948 5949 5949 5950 5950 5950 5949 5947 5945 5943 5942 5942 5941 5940 5939 5938 5937 5936 5936 5936 5935 5935 5934 5934 5933 5932
5929 5930 5931 5933 5934 5934 5935 5936 5937 5938 5939 5940 5941 5942 5942 5943 5944 5944 5945 5945 5946 5946 5946 5946 5946 5947 5947 5948 5949 5950 5950 5951 5952 5952 5952 5953 5954 5954 5953 5953 5952 5952 5953 5953 5953 5953 5953 5953 5951 5949 5949 5948 5949 5949 5950 5951 5950 5949 5949 5949 5949 5948 5948 5947 5946 5947 5947 5947 5948 5946 5943 5942 5942 5942 5941 5940 5940 5939 5938 5937 5936 5935 5935 5934 5934 5933 5933 5931
5928 5929 5930 5931 5932 5933 5934 5935 5936 5937 5937 5938 5939 5940 5941 5942 5943 5944 5944 5945 5945 5945 5946 5946 5946 5946 5947 5948 5949 5950 5950 5951 5952 5953 5953 5953 5954 5955 5954 5953 5953 5953 5953 5954 5954 5954 5954 5953 5952 5950 5950 5951 5952 5952 5952 5953 5953 5952 5952 5952 5951 5949 5948 5946 5945 5945 5944 5945 5946 5945 5944 5943 5943 5943 5942 5942 5941 5940 5938 5937 5936 5936 5935 5934 5934 5933 5932 5931
5927 5928 5929 5930 5931 5932 5933 5934 5935 5935 5936 5937 5938 5939 5940 5941 5942 5943 5944 5944 5945 5945 5945 5945 5946 5946 5947 5948 5949 5950 5950 5951 5952 5953 5953 5953 5954 5954 5955 5954 5953 5953 5954 5955 5955 5955 5955 5954 5954 5952 5950 5951 5953 5954 5954 5955 5956 5956 5955 5954 5953 5952 5950 5948 5947 5946 5945 5945 5946 5947 5946 5944 5944 5944 5944 5944 5942 5940 5940 5938 5937 5936 5935 5934 5934 5933 5931 5930
5926 5927 5928 5929 5930 5931 5932 5933 5933 5934 5935 5936 5937 5937 5938 5939 5940 5942 5943 5943 5944 5944 5945 5945 5945 5946 5946 5948 5949 5949 5950 5951 5952 5953 5954 5954 5954 5954 5954 5954 5954 5954 5954 5955 5956 5955 5955 5955 5954 5953 5952 5953 5954 5954 5955 5955 5957 5958 5958 5957 5957 5955 5953 5951 5951 5950 5948 5947 5947 5948 5948 5946 5945 5945 5945 5944 5943 5941 5940 5938 5937 5936 5935 5935 5934 5933 5931 5930
5925 5926 5927 5928 5929 5930 5930 5931 5932 5933 5934 5935 5935 5936 5937 5938 5939 5940 5941 5942 5943 5943 5944 5944 5945 5945 5946 5947 5948 5949 5950 5950 5951 5952 5953 5954 5954 5954 5954 5954 5954 5954 5954 5955 5955 5954 5955 5956 5954 5954 5954 5955 5955 5954 5954 5956 5958 5959 5959 5959 5958 5958 5957 5955 5954 5953 5951 5949 5949 5949 5949 5948 5947 5946 5945 5945 5943 5942 5940 5938 5937 5936 5936 5936 5935 5933 5932 5931
5923 5924 5925 5926 5927 5928 5929 5930 5931 5932 5933 5934 5934 5935 5936 5936 5937 5938 5939 5941 5941 5942 5943 5944 5944 5945 5945 5947 5948 5949 5949 5949 5950 5951 5952 5953 5953 5953 5954 5954 5954 5954 5954 5954 5954 5954 5956 5956 5954 5954 5955 5955 5956 5956 5956 5959 5960 5959 5959 5959 5959 5959 5959 5958 5956 5954 5953 5951 5950 5950 5950 5949 5949 5948 5946 5945 5944 5942 5940 5939 5938 5937 5937 5937 5936 5934 5933 5932
5921 5922 5923 5925 5926 5927 5928 5929 5929 5930 5931 5932 5933 5934 5935 5935 5936 5937 5938 5939 5940 5941 5942 5942 5943 5944 5945 5946 5946 5947 5948 5948 5950 5950 5951 5951 5952 5953 5953 5953 5954 5954 5954 5954 5954 5954 5956 5957 5955 5955 5955 5956 5958 5958 5959 5960 5960 5959 5959 5959 5959 5959 5959 5960 5958 5956 5954 5953 5952 5951 5952 5951 5950 5949 5947 5945 5944 5942 5940 5939 5939 5938 5937 5937 5937 5935 5934 5933
5919 5920 5921 5923 5924 5925 5926 5927 5928 5929 5930 5931 5932 5933 5933 5934 5935 5936 5937 5938 5939 5940 5940 5941 5942 5943 5944 5945 5945 5947 5947 5948 5949 5949 5949 5950 5951 5952 5952 5953 5953 5953 5954 5954 5954 5955 5956 5956 5956 5956 5956 5956 5958 5960 5959 5959 5958 5958 5959 5958 5959 5959 5959 5960 5959 5957 5956 5955 5953 5952 5952 5952 5950 5949 5948 5947 5945 5943 5941 5940 5940 5939 5938 5937 5937 5936 5935 5934
5916 5918 5919 5921 5922 5923 5924 5925 5926 5928 5929 5929 5930 5931 5932 5933 5934 5935 5936 5937 5938 5939 5939 5941 5942 5943 5943 5944 5945 5946 5946 5946 5948 5948 5948 5949 5950 5951 5951 5952 5952 5953 5953 5953 5954 5954 5955 5956 5956 5956 5956 5956 5958 5960 5959 5957 5957 5957 5957 5958 5958 5959 5960 5960 5959 5958 5957 5956 5954 5953 5953 5953 5951 5951 5950 5949 5946 5945 5943 5942 5942 5941 5939 5937 5937 5936 5935 5935
5914 5915 5917 5918 5920 5921 5922 5923 5925 5926 5927 5928 5929 5930 5931 5932 5933 5934 5935 5936 5937 5938 5939 5940 5941 5942 5942 5942 5943 5944 5945 5946 5946 5946 5947 5948 5949 5950 5950 5951 5952 5952 5952 5953 5953 5954 5954 5955 5955 5955 5955 5955 5957 5958 5957 5956 5956 5956 5957 5957 5958 5959 5960 5960 5960 5959 5958 5956 5955 5954 5954 5953 5952 5951 5951 5950 5947 5946 5944 5943 5942 5941 5939 5937 5936 5936 5935 5935
5911 5913 5914 5916 5917 5919 5920 5921 5923 5924 5925 5926 5927 5928 5929 5931 5932 5933 5934 5935 5936 5937 5938 5939 5940 5940 5940 5941 5942 5942 5943 5944 5944 5945 5947 5948 5948 5949 5949 5950 5951 5951 5952 5953 5953 5953 5953 5954 5954 5954 5955 5955 5957 5958 5956 5955 5956 5956 5956 5957 5958 5959 5960 5959 5959 5959 5958 5957 5956 5955 5953 5952 5952 5950 5950 5950 5948 5947 5945 5944 5942 5941 5940 5938 5936 5935 5935 5935
5909 5910 5912 5913 5915 5916 5918 5919 5920 5922 5923 5924 5926 5927 5928 5929 5930 5931 5932 5933 5934 5935 5937 5938 5939 5939 5940 5940 5940 5941 5942 5943 5944 5945 5946 5947 5947 5948 5949 5950 5950 5951 5951 5952 5952 5952 5952 5952 5952 5954 5955 5956 5956 5957 5955 5955 5955 5955 5955 5956 5957 5958 5959 5959 5958 5958 5958 5957 5956 5954 5952 5951 5950 5949 5948 5948 5947 5946 5945 5944 5942 5941 5940 5939 5936 5935 5935 5935
5906 5908 5909 5911 5912 5914 5915 5916 5918 5919 5921 5922 5924 5925 5926 5927 5929 5930 5931 5931 5932 5934 5936 5937 5938 5939 5939 5939 5939 5940 5942 5942 5943 5944 5945 5946 5946 5947 5948 5949 5950 5950 5951 5951 5951 5951 5951 5952 5952 5953 5953 5954 5955 5954 5953 5953 5953 5954 5954 5955 5957 5957 5958 5957 5957 5957 5957 5956 5955 5954 5952 5950 5949 5948 5947 5947 5946 5945 5945 5944 5943 5941 5940 5939 5937 5935 5934 5934
5904 5905 5907 5908 5910 5911 5913 5914 5916 5917 5919 5920 5921 5922 5924 5926 5927 5928 5929 5930 5931 5932 5934 5936 5937 5937 5939 5939 5939 5940 5941 5942 5942 5942 5944 5945 5945 5946 5947 5948 5948 5949 5950 5950 5950 5949 5950 5951 5952 5952 5951 5951 5952 5952 5951 5951 5952 5952 5954 5955 5956 5956 5956 5956 5956 5955 5955 5954 5953 5952 5951 5948 5946 5945 5945 5945 5945 5944 5944 5944 5943 5942 5940 5939 5938 5936 5934 5933
5902 5903 5904 5906 5907 5909 5910 5912 5913 5915 5917 5918 5919 5920 5922 5924 5925 5926 5927 5928 5929 5931 5933 5934 5934 5935 5937 5938 5940 5942 5942 5942 5942 5942 5943 5944 5944 5945 5946 5947 5947 5948 5949 5949 5948 5948 5949 5950 5951 5952 5952 5951 5951 5951 5951 5951 5951 5952 5954 5954 5955 5955 5954 5955 5955 5954 5953 5952 5951 5950 5949 5948 5944 5943 5943 5943 5943 5943 5944 5944 5943 5942 5940 5938 5938 5937 5935 5932
5899 5901 5902 5903 5905 5906 5908 5909 5911 5913 5915 5916 5917 5918 5920 5921 5923 5924 5925 5927 5928 5930 5931 5932 5933 5934 5935 5936 5938 5940 5941 5941 5941 5941 5942 5942 5943 5944 5944 5945 5946 5947 5947 5947 5947 5946 5948 5949 5950 5951 5952 5952 5952 5951 5951 5950 5951 5952 5954 5954 5954 5954 5953 5953 5954 5953 5950 5949 5949 5948 5947 5947 5944 5942 5942 5942 5942 5943 5943 5943 5943 5942 5940 5938 5938 5937 5935 5933
5897 5899 5900 5901 5902 5904 5905 5907 5909 5911 5912 5913 5915 5916 5917 5919 5921 5922 5923 5925 5926 5928 5929 5930 5932 5932 5933 5935 5936 5937 5938 5939 5939 5940 5941 5941 5942 5942 5943 5944 5945 5946 5946 5946 5946 5945 5947 5948 5948 5949 5950 5950 5950 5949 5948 5948 5949 5950 5952 5952 5953 5953 5952 5952 5952 5950 5948 5947 5947 5946 5944 5944 5943 5942 5942 5942 5942 5943 5943 5943 5942 5941 5940 5938 5938 5937 5934 5932
5895 5897 5898 5899 5900 5902 5903 5905 5906 5908 5910 5912 5913 5914 5915 5917 5919 5920 5921 5923 5924 5926 5928 5929 5929 5930 5931 5933 5934 5935 5936 5937 5938 5938 5939 5940 5940 5941 5942 5943 5943 5944 5944 5945 5945 5945 5946 5947 5946 5946 5948 5947 5947 5946 5946 5946 5947 5948 5949 5950 5951 5951 5950 5950 5950 5948 5946 5946 5946 5944 5941 5942 5943 5942 5941 5941 5941 5942 5942 5942 5941 5941 5940 5938 5937 5936 5933 5932
5893 5894 5896 5897 5898 5899 5901 5902 5904 5906 5908 5910 5911 5912 5913 5915 5917 5918 5920 5921 5922 5924 5926 5926 5927 5929 5930 5930 5932 5933 5934 5936 5936 5936 5937 5939 5939 5939 5940 5941 5942 5942 5942 5943 5943 5944 5945 5945 5944 5945 5946 5946 5946 5946 5945 5945 5946 5947 5948 5949 5949 5949 5949 5949 5948 5948 5946 5945 5944 5942 5940 5941 5942 5942 5941 5940 5941 5942 5942 5941 5940 5941 5940 5938 5937 5934 5933 5931
5891 5892 5893 5894 5895 5897 5899 5900 5901 5904 5906 5908 5909 5909 5911 5913 5914 5916 5918 5919 5921 5922 5923 5924 5926 5928 5928 5928 5930 5931 5932 5934 5934 5934 5936 5937 5938 5938 5938 5939 5940 5940 5940 5941 5942 5943 5944 5943 5943 5944 5944 5944 5944 5945 5945 5944 5945 5946 5946 5947 5947 5947 5947 5947 5947 5947 5946 5945 5945 5943 5941 5940 5940 5940 5941 5940 5941 5942 5942 5941 5939 5940 5939 5938 5936 5934 5932 5931
5889 5890 5891 5892 5893 5895 5896 5897 5899 5902 5905 5906 5907 5907 5908 5910 5912 5914 5916 5917 5919 5920 5920 5921 5924 5925 5926 5927 5928 5928 5929 5932 5932 5932 5934 5935 5935 5936 5936 5937 5938 5938 5938 5938 5940 5942 5942 5942 5942 5943 5943 5942 5942 5943 5944 5943 5944 5944 5945 5945 5945 5945 5945 5945 5945 5945 5945 5945 5945 5944 5942 5940 5938 5938 5938 5939 5940 5941 5941 5939 5938 5938 5938 5937 5935 5933 5932 5930
5886 5888 5889 5890 5891 5892 5894 5895 5897 5900 5903 5904 5904 5904 5906 5908 5910 5912 5913 5914 5917 5918 5918 5919 5921 5923 5925 5925 5925 5925 5927 5930 5931 5930 5931 5932 5933 5934 5935 5936 5937 5936 5936 5937 5939 5941 5941 5941 5941 5941 5941 5941 5941 5942 5942 5942 5942 5943 5943 5943 5943 5944 5944 5944 5944 5944 5944 5944 5944 5943 5942 5940 5938 5936 5936 5937 5938 5938 5938 5937 5937 5937 5937 5936 5934 5932 5931 5929
5884 5885 5887 5888 5889 5890 5891 5893 5896 5899 5901 5901 5900 5901 5904 5906 5908 5910 5911 5912 5915 5916 5916 5918 5919 5921 5922 5922 5923 5924 5925 5927 5929 5929 5929 5929 5931 5933 5934 5934 5935 5935 5934 5936 5938 5939 5939 5940 5939 5939 5940 5941 5941 5941 5941 5941 5941 5941 5941 5941 5942 5942 5942 5942 5942 5942 5942 5943 5943 5942 5941 5939 5938 5936 5936 5935 5935 5936 5936 5936 5935 5935 5935 5934 5932 5930 5929 5927
5882 5883 5884 5886 5887 5888 5890 5892 5894 5897 5898 5897 5897 5900 5902 5903 5905 5907 5908 5910 5912 5914 5914 5916 5917 5918 5919 5920 5922 5923 5924 5925 5926 5926 5926 5927 5928 5931 5932 5932 5933 5933 5933 5934 5936 5937 5937 5937 5937 5938 5939 5940 5940 5940 5939 5940 5940 5940 5940 5940 5941 5941 5940 5941 5941 5940 5941 5942 5941 5940 5939 5938 5936 5935 5935 5934 5934 5934 5934 5934 5934 5933 5933 5932 5931 5929 5927 5926
5880 5881 5882 5884 5885 5886 5888 5890 5892 5893 5893 5893 5896 5898 5899 5901 5903 5904 5905 5908 5911 5912 5913 5915 5915 5915 5917 5918 5919 5921 5921 5922 5923 5924 5924 5925 5926 5928 5930 5930 5931 5931 5931 5932 5934 5936 5936 5935 5935 5936 5937 5937 5937 5938 5938 5938 5939 5939 5939 5939 5940 5939 5939 5939 5939 5938 5940 5940 5939 5938 5937 5935 5933 5933 5934 5933 5933 5933 5933 5933 5933 5932 5932 5931 5930 5929 5927 5925
5878 5879 5880 5882 5883 5884 5886 5888 5889 5889 5890 5892 5895 5896 5897 5899 5900 5901 5903 5908 5910 5910 5911 5912 5913 5914 5915 5916 5916 5917 5919 5920 5921 5921 5922 5923 5925 5927 5928 5928 5928 5929 5929 5930 5932 5933 5933 5933 5934 5935 5935 5935 5936 5937 5937 5937 5937 5937 5937 5937 5938 5938 5937 5937 5937 5936 5938 5938 5937 5936 5934 5932 5930 5931 5932 5932 5932 5932 5932 5932 5932 5931 5930 5930 5929 5928 5927 5925
5876 5877 5878 5880 5881 5882 5884 5885 5886 5887 5889 5891 5893 5894 5895 5896 5897 5900 5903 5907 5907 5907 5909 5909 5910 5911 5911 5913 5914 5914 5917 5918 5918 5919 5919 5920 5923 5924 5925 5926 5926 5926 5927 5928 5929 5930 5931 5933 5934 5933 5933 5934 5934 5935 5936 5936 5936 5936 5936 5935 5935 5935 5935 5936 5936 5935 5935 5935 5935 5934 5931 5929 5929 5930 5931 5931 5930 5931 5931 5931 5931 5930 5929 5929 5929 5928 5927 5925
5874 5875 5876 5878 5879 5880 5881 5882 5884 5886 5888 5889 5890 5892 5893 5893 5896 5900 5902 5904 5905 5905 5907 5907 5907 5907 5908 5911 5912 5912 5914 5916 5916 5917 5917 5917 5919 5921 5922 5923 5923 5924 5925 5926 5927 5928 5929 5931 5932 5932 5933 5933 5933 5934 5935 5935 5935 5935 5935 5934 5934 5934 5934 5934 5933 5933 5933 5933 5934 5932 5929 5928 5928 5929 5929 5929 5929 5929 5930 5929 5929 5929 5929 5928 5928 5928 5926 5925
5872 5873 5874 5875 5877 5878 5879 5880 5883 5884 5885 5887 5888 5889 5890 5893 5896 5899 5900 5902 5903 5903 5904 5905 5905 5905 5906 5909 5910 5910 5912 5914 5915 5915 5915 5915 5916 5918 5920 5920 5921 5921 5922 5923 5924 5925 5927 5929 5930 5931 5931 5931 5931 5933 5933 5933 5934 5934 5934 5933 5933 5933 5932 5932 5931 5931 5931 5932 5932 5930 5927 5926 5927 5928 5928 5928 5928 5929 5929 5929 5928 5928 5928 5927 5927 5927 5926 5925
5869 5870 5871 5873 5874 5875 5877 5879 5880 5882 5883 5885 5886 5888 5890 5893 5895 5896 5898 5900 5900 5900 5901 5902 5902 5903 5905 5906 5907 5908 5910 5912 5913 5913 5913 5913 5915 5917 5918 5918 5918 5919 5920 5921 5922 5923 5925 5927 5928 5928 5928 5928 5930 5930 5931 5931 5932 5932 5932 5931 5930 5930 5929 5929 5929 5929 5930 5930 5929 5928 5926 5926 5926 5927 5927 5927 5927 5928 5928 5928 5927 5926 5926 5925 5926 5925 5925 5924
5866 5867 5869 5870 5872 5873 5874 5876 5878 5879 5881 5882 5884 5887 5889 5891 5892 5893 5894 5894 5894 5894 5897 5900 5901 5902 5904 5905 5907 5908 5909 5911 5911 5911 5912 5913 5915 5916 5915 5916 5916 5917 5918 5919 5920 5921 5922 5924 5925 5925 5926 5926 5927 5927 5928 5930 5930 5931 5930 5929 5928 5927 5927 5927 5927 5928 5929 5928 5926 5925 5925 5925 5926 5927 5926 5926 5926 5926 5926 5925 5925 5924 5924 5923 5923 5922 5922 5921
5863 5864 5866 5867 5869 5870 5872 5873 5875 5877 5879 5881 5883 5886 5887 5888 5889 5889 5889 5890 5890 5892 5896 5899 5899 5901 5902 5904 5906 5907 5908 5909 5909 5910 5911 5912 5913 5914 5914 5914 5914 5915 5916 5917 5918 5919 5920 5922 5923 5924 5925 5924 5924 5925 5926 5928 5929 5929 5928 5927 5926 5925 5925 5926 5926 5927 5928 5927 5925 5924 5925 5925 5926 5926 5925 5925 5924 5924 5923 5923 5923 5922 5921 5921 5920 5919 5919 5917
5860 5861 5863 5864 5866 5867 5869 5871 5873 5875 5877 5879 5882 5883 5884 5885 5886 5886 5887 5889 5890 5892 5894 5895 5896 5897 5899 5900 5903 5904 5906 5907 5907 5909 5910 5911 5912 5913 5913 5914 5913 5914 5915 5915 5916 5917 5918 5920 5921 5923 5923 5922 5921 5923 5925 5926 5927 5927 5926 5925 5924 5925 5925 5925 5926 5926 5927 5926 5924 5924 5924 5924 5925 5924 5924 5923 5922 5921 5921 5920 5920 5919 5918 5918 5917 5917 5915 5913
5856 5858 5860 5861 5863 5864 5866 5868 5870 5872 5875 5877 5879 5880 5881 5882 5882 5883 5884 5886 5887 5889 5892 5893 5893 5895 5896 5898 5900 5902 5904 5905 5905 5907 5909 5911 5912 5912 5913 5913 5913 5914 5914 5915 5916 5916 5916 5918 5920 5922 5921 5920 5920 5922 5924 5925 5925 5926 5925 5924 5923 5925 5925 5925 5926 5926 5927 5926 5924 5923 5923 5923 5924 5924 5923 5923 5921 5920 5919 5918 5917 5916 5916 5916 5915 5914 5912 5910
5853 5855 5856 5858 5859 5862 5864 5866 5868 5870 5873 5875 5876 5877 5878 5879 5880 5881 5882 5883 5885 5888 5890 5890 5891 5894 5896 5898 5899 5900 5901 5903 5904 5905 5907 5909 5911 5912 5913 5913 5913 5913 5913 5914 5915 5915 5915 5916 5919 5920 5919 5920 5920 5921 5923 5924 5924 5925 5925 5924 5924 5925 5925 5925 5926 5926 5926 5925 5925 5924 5923 5923 5923 5923 5923 5922 5921 5920 5918 5917 5916 5915 5915 5915 5913 5911 5909 5908
5850 5851 5853 5855 5857 5859 5861 5863 5865 5867 5870 5872 5873 5874 5875 5876 5877 5878 5879 5881 5883 5886 5888 5888 5890 5893 5896 5897 5898 5898 5899 5901 5903 5905 5906 5908 5910 5912 5913 5913 5913 5912 5912 5913 5913 5913 5914 5914 5916 5918 5918 5919 5919 5920 5921 5922 5922 5924 5924 5924 5924 5924 5924 5924 5924 5924 5924 5924 5924 5923 5923 5923 5922 5921 5921 5921 5920 5919 5918 5917 5916 5915 5914 5913 5911 5908 5906 5905
5846 5848 5850 5852 5854 5856 5858 5860 5862 5864 5867 5868 5869 5870 5871 5872 5874 5875 5877 5879 5881 5883 5885 5886 5889 5892 5894 5896 5896 5897 5898 5900 5903 5904 5905 5906 5907 5909 5911 5911 5912 5911 5911 5911 5911 5911 5913 5913 5914 5915 5916 5918 5919 5919 5920 5920 5921 5922 5923 5924 5923 5923 5923 5923 5922 5923 5922 5922 5922 5922 5922 5922 5921 5920 5919 5919 5919 5918 5918 5917 5915 5914 5913 5912 5908 5904 5901 5901
5842 5845 5846 5847 5850 5852 5853 5856 5858 5861 5863 5864 5865 5866 5868 5869 5871 5872 5874 5877 5878 5880 5882 5884 5887 5890 5892 5893 5893 5895 5897 5899 5901 5903 5903 5903 5905 5907 5908 5910 5911 5911 5910 5910 5910 5910 5912 5912 5912 5912 5913 5916 5918 5919 5919 5919 5920 5921 5922 5922 5922 5922 5922 5921 5921 5921 5921 5921 5921 5921 5921 5920 5919 5918 5917 5917 5918 5918 5917 5916 5914 5913 5912 5910 5906 5901 5898 5897
5838 5841 5841 5842 5845 5847 5849 5851 5854 5856 5858 5859 5861 5863 5865 5867 5869 5870 5872 5874 5876 5878 5880 5882 5886 5888 5889 5891 5891 5894 5896 5897 5899 5901 5901 5901 5904 5905 5905 5907 5909 5909 5909 5910 5910 5911 5911 5911 5911 5911 5911 5914 5917 5918 5919 5919 5920 5920 5921 5921 5921 5921 5921 5921 5920 5921 5920 5919 5919 5919 5919 5918 5917 5917 5916 5916 5916 5916 5915 5914 5912 5911 5910 5908 5905 5900 5895 5893
5834 5835 5836 5837 5840 5843 5845 5847 5850 5852 5854 5856 5859 5862 5864 5866 5867 5868 5870 5872 5874 5876 5878 5881 5884 5886 5887 5889 5891 5893 5894 5895 5897 5899 5899 5899 5901 5903 5903 5903 5904 5905 5907 5907 5907 5908 5909 5908 5909 5910 5910 5912 5915 5916 5918 5918 5919 5919 5919 5919 5920 5920 5921 5920 5919 5919 5919 5918 5918 5917 5917 5917 5916 5915 5915 5914 5914 5914 5913 5911 5910 5909 5908 5906 5903 5899 5893 5889
5828 5830 5832 5833 5836 5840 5842 5844 5846 5849 5851 5853 5856 5859 5860 5862 5863 5864 5866 5868 5870 5873 5876 5879 5882 5884 5886 5888 5890 5892 5893 5894 5896 5897 5897 5897 5899 5901 5901 5900 5901 5902 5903 5903 5903 5905 5906 5906 5908 5909 5909 5911 5912 5913 5915 5916 5917 5917 5917 5917 5918 5919 5919 5918 5917 5917 5917 5917 5916 5915 5915 5915 5914 5913 5913 5913 5912 5912 5911 5909 5909 5907 5906 5903 5900 5897 5892 5887
5823 5826 5830 5832 5834 5837 5840 5842 5844 5846 5848 5850 5853 5855 5856 5859 5860 5861 5863 5865 5867 5870 5873 5876 5880 5882 5884 5886 5888 5890 5891 5893 5895 5896 5895 5895 5897 5898 5898 5899 5900 5900 5900 5901 5901 5902 5903 5905 5906 5906 5908 5910 5911 5912 5913 5914 5915 5915 5915 5915 5916 5916 5916 5916 5915 5915 5915 5915 5914 5913 5913 5913 5912 5911 5911 5911 5910 5910 5909 5908 5907 5905 5903 5901 5899 5896 5892 5886
5820 5824 5828 5830 5831 5834 5836 5839 5841 5844 5846 5848 5850 5852 5853 5855 5857 5859 5860 5861 5864 5867 5870 5873 5876 5879 5881 5882 5884 5887 5890 5891 5893 5894 5894 5894 5894 5894 5895 5897 5898 5898 5899 5899 5899 5899 5900 5902 5903 5905 5907 5909 5911 5913 5913 5913 5914 5914 5914 5913 5912 5912 5913 5914 5914 5913 5913 5913 5912 5911 5911 5911 5911 5910 5909 5909 5909 5908 5908 5906 5904 5903 5901 5899 5897 5895 5891 5886
5818 5822 5826 5827 5828 5830 5833 5835 5837 5839 5841 5844 5847 5848 5850 5852 5853 5855 5856 5858 5860 5863 5866 5869 5872 5874 5876 5877 5879 5882 5886 5888 5890 5892 5892 5891 5890 5891 5893 5894 5895 5896 5897 5896 5896 5897 5899 5900 5901 5903 5905 5907 5909 5911 5912 5913 5913 5913 5912 5911 5910 5910 5910 5911 5911 5910 5910 5911 5910 5910 5910 5910 5909 5909 5908 5908 5908 5907 5906 5904 5902 5900 5899 5897 5895 5893 5890 5885
5815 5818 5822 5823 5824 5826 5828 5830 5832 5835 5837 5839 5842 5843 5845 5848 5849 5850 5851 5854 5856 5859 5862 5864 5866 5868 5870 5872 5873 5876 5880 5883 5886 5888 5889 5888 5887 5888 5891 5892 5893 5894 5895 5894 5895 5897 5898 5899 5900 5901 5903 5905 5907 5909 5911 5912 5912 5912 5910 5908 5907 5908 5909 5908 5909 5908 5908 5909 5909 5909 5909 5908 5907 5907 5906 5906 5905 5904 5903 5902 5900 5899 5897 5895 5893 5891 5889 5885
5810 5813 5816 5818 5819 5821 5823 5825 5828 5830 5831 5833 5836 5838 5840 5842 5843 5844 5846 5849 5852 5855 5858 5860 5862 5864 5866 5867 5868 5871 5874 5877 5881 5884 5884 5884 5884 5887 5889 5890 5891 5892 5893 5893 5894 5895 5897 5898 5898 5899 5900 5903 5905 5908 5911 5911 5910 5910 5909 5905 5904 5906 5906 5906 5907 5907 5907 5908 5908 5907 5907 5905 5905 5904 5903 5902 5902 5901 5901 5900 5899 5897 5896 5894 5892 5890 5888 5885
5806 5808 5811 5813 5814 5816 5818 5820 5823 5824 5825 5828 5831 5832 5834 5836 5838 5840 5841 5845 5848 5851 5854 5857 5860 5861 5862 5862 5863 5866 5868 5871 5875 5878 5879 5879 5882 5885 5887 5888 5889 5891 5892 5892 5893 5894 5896 5897 5897 5897 5899 5902 5904 5906 5907 5908 5908 5908 5907 5904 5902 5903 5904 5903 5904 5905 5905 5906 5906 5906 5905 5903 5902 5902 5901 5900 5899 5899 5898 5897 5896 5895 5893 5891 5889 5887 5885 5883